Location: ????????
(55.0559°N, 39.1270°E)
Time: 01:34:26
(UTC+00:00)

Meteor 1-11 - Pass Details

Date: 15 November 2025
Orbit: 830 x 894 km, 81.2° (Epoch: 11 December)

Event Time Altitude Azimuth Distance (km) Brightness Sun altitude
Rises 03:26:41 0° 193° (SSW) 3,498 7.4 -12.5°
Reaches altitude 10° 03:29:08 10° 194° (SSW) 2,562 6.7 -12.2°
Maximum altitude 03:35:00 85° 282° (WNW) 904 4.3 -11.4°
Drops below altitude 10° 03:40:53 10° 14° (NNE) 2,563 6.7 -10.5°
Sets 03:43:20 0° 15° (NNE) 3,499 7.4 -10.2°
